Location: Austin
(30.3000°N, 97.7500°W)
Time: 01:57:30
(UTC-05:00)

Resurs 1-3 - Pass Details

Date: 20 April 2024
Orbit: 621 x 624 km, 97.7° (Epoch: 30 May)

Event Time Altitude Azimuth Distance (km) Brightness Sun altitude
Exits shadow 21:08:54 - 174° (S) 2,674 6.5 -14.4°
Reaches altitude 10° 21:10:34 10° 176° (S) 1,988 5.9 -14.8°
Maximum altitude 21:14:52 66° 259° (W) 681 3.9 -15.6°
Drops below altitude 10° 21:19:11 10° 342° (NNW) 1,999 6.8 -16.5°
Sets 21:21:24 0° 345° (NNW) 2,909 7.6 -16.9°
